Date,TemperatureHighF,TemperatureAvgF,TemperatureLowF,DewpointHighF,DewpointAvgF,DewpointLowF,HumidityHigh,HumidityAvg,HumidityLow,PressureMaxIn,PressureMinIn,WindSpeedMaxMPH,WindSpeedAvgMPH,GustSpeedMaxMPH,PrecipitationSumIn
2013-1-1,40.0,34.6,31.0,32.0,25.7,18.0,80,70,59,0.00,40.00,5,2,8,0.03
2013-1-2,43.0,32.7,27.0,28.0,21.9,18.0,71,64,51,0.00,40.00,5,3,13,0.01
2013-1-3,40.0,31.5,26.0,40.0,24.5,17.0,99,76,59,0.00,40.00,18,5,25,0.20
2013-1-4,48.0,41.4,37.0,43.0,40.3,36.0,100,96,82,0.00,40.00,18,5,26,0.28
2013-1-5,40.0,36.2,33.0,39.0,35.8,33.0,99,98,88,0.00,40.00,11,4,19,0.01
2013-1-6,44.0,38.6,35.0,42.0,37.8,35.0,100,97,89,0.00,40.00,14,6,21,0.03
2013-1-7,47.0,43.1,38.0,47.0,42.5,38.0,100,98,91,0.00,40.00,18,11,31,0.36
2013-1-8,46.0,43.8,41.0,46.0,43.6,40.0,100,99,93,0.00,40.00,25,15,45,0.63
2013-1-9,44.0,36.8,30.0,42.0,34.8,29.0,98,93,84,0.00,40.00,28,11,46,0.21
2013-1-10,40.0,33.6,29.0,35.0,30.4,27.0,99,88,77,0.00,40.00,8,5,21,0.26
2013-1-11,37.0,31.0,26.0,29.0,24.2,18.0,91,77,45,0.00,40.00,6,3,19,0.03
2013-1-12,39.0,27.6,24.0,31.0,21.4,17.0,89,77,65,0.00,40.00,5,2,11,0.01
2013-1-13,28.0,24.0,22.0,26.0,22.1,20.0,97,92,85,0.00,40.00,4,2,8,0.00
2013-1-14,36.0,28.9,20.0,35.0,27.4,18.0,99,94,84,0.00,40.00,3,2,7,0.02
2013-1-15,37.0,34.0,29.0,36.0,33.8,29.0,100,98,96,0.00,40.00,5,2,8,0.01
2013-1-16,51.0,35.2,27.0,40.0,26.6,11.0,99,76,26,0.00,40.00,5,2,6,0.01
2013-1-17,57.0,48.4,39.0,38.0,21.8,8.0,60,36,19,0.00,40.00,4,2,6,0.01
2013-1-18,60.0,51.3,45.0,38.0,21.3,4.0,54,32,13,0.00,40.00,3,2,5,0.00
2013-1-19,61.0,48.8,40.0,37.0,21.2,1.0,48,35,12,0.00,40.00,5,2,12,0.00
2013-1-20,48.0,40.0,36.0,34.0,24.2,22.0,59,53,43,0.00,40.00,4,2,9,0.00
2013-1-21,50.0,39.2,35.0,34.0,23.8,19.0,67,54,37,0.00,40.00,4,2,10,0.00
2013-1-22,51.0,40.5,35.0,34.0,25.3,16.0,79,55,35,0.00,40.00,4,3,7,0.00
2013-1-23,40.0,36.7,34.0,38.0,30.7,23.0,97,80,58,0.00,40.00,9,3,16,0.19
2013-1-24,44.0,38.9,34.0,41.0,37.3,33.0,99,94,88,0.00,40.00,20,7,31,0.03
2013-1-25,50.0,42.0,36.0,46.0,40.5,33.0,100,94,76,0.00,40.00,16,9,22,0.11
2013-1-26,41.0,35.6,33.0,40.0,34.5,32.0,98,97,91,0.00,40.00,13,7,22,0.30
2013-1-27,36.0,34.0,32.0,35.0,32.8,30.0,98,96,91,0.00,40.00,10,6,25,0.09
2013-1-28,40.0,37.3,36.0,38.0,35.1,33.0,97,92,86,0.00,40.00,14,8,27,0.25
2013-1-29,44.0,39.9,37.0,42.0,37.8,34.0,98,92,85,0.00,40.00,14,6,25,0.03
2013-1-30,52.0,43.1,38.0,45.0,40.3,37.0,99,90,68,0.00,40.00,11,8,24,0.00
2013-1-31,52.0,44.5,40.0,44.0,40.7,37.0,97,87,70,0.00,40.00,9,4,14,0.00
2013-2-1,55.0,44.7,40.0,44.0,40.1,37.0,99,85,61,0.00,40.00,8,3,12,0.00
2013-2-2,51.0,44.7,39.0,42.0,36.4,30.0,95,72,66,0.00,40.00,11,3,15,0.00
2013-2-3,42.0,40.1,38.0,40.0,38.9,37.0,99,96,90,0.00,40.00,11,4,17,0.00
2013-2-4,51.0,41.3,38.0,43.0,38.7,36.0,99,91,72,0.00,40.00,25,6,37,0.00
2013-2-5,42.0,39.5,38.0,41.0,38.3,36.0,99,95,87,0.00,40.00,26,13,39,0.56
2013-2-6,42.0,38.6,37.0,42.0,37.9,36.0,99,97,95,0.00,40.00,17,12,27,0.33
2013-2-7,41.0,35.7,33.0,38.0,34.5,32.0,98,95,89,0.00,40.00,10,4,14,0.22
2013-2-8,45.0,38.7,34.0,39.0,32.5,27.0,95,79,64,0.00,40.00,6,4,14,0.03
2013-2-9,40.0,37.2,34.0,40.0,34.4,28.0,99,90,77,0.00,40.00,5,3,11,0.01
2013-2-12,47.0,46.5,44.0,43.0,42.8,42.0,96,88,84,0.00,40.00,9,6,15,0.00
2013-2-13,53.0,53.0,53.0,38.0,38.0,38.0,56,56,56,0.00,40.00,9,9,13,0.00
2013-2-14,55.0,50.8,44.0,45.0,42.1,39.0,81,72,66,0.00,40.00,5,4,10,0.00
2013-2-15,60.0,50.5,40.0,46.0,42.7,39.0,98,76,58,0.00,40.00,7,4,11,0.00
2013-2-16,47.0,41.5,36.0,42.0,37.8,32.0,99,87,65,0.00,40.00,11,7,27,0.00
2013-2-17,43.0,37.0,33.0,40.0,32.6,30.0,92,84,70,0.00,40.00,8,3,17,0.07
2013-2-18,41.0,39.3,38.0,36.0,35.4,35.0,90,86,81,0.00,40.00,13,11,18,0.00
2013-2-19,46.0,39.6,36.0,38.0,35.3,31.0,97,85,70,0.00,40.00,6,5,14,0.00
2013-2-20,41.0,38.1,35.0,36.0,34.5,33.0,97,88,76,0.00,40.00,15,10,22,0.04
2013-2-21,38.0,36.7,36.0,36.0,35.1,34.0,98,95,90,0.00,40.00,19,12,29,0.02
2013-2-23,41.0,37.5,36.0,35.0,31.8,28.0,88,79,68,0.00,40.00,9,7,27,0.23
2013-2-24,52.0,43.4,37.0,38.0,34.2,31.0,97,71,55,0.00,40.00,18,12,24,0.01
2013-2-25,42.0,36.1,32.0,37.0,33.6,30.0,98,91,69,0.00,40.00,13,7,35,0.40
2013-2-26,46.0,38.1,32.0,37.0,33.2,30.0,93,83,72,0.00,40.00,11,6,18,0.03
2013-2-27,38.0,37.3,37.0,33.0,32.7,32.0,86,84,78,0.00,40.00,10,7,19,0.00
2013-3-1,54.0,54.0,54.0,51.0,51.0,51.0,88,88,88,0.00,40.00,9,9,19,0.00
2013-3-3,48.0,39.6,33.0,34.0,31.2,28.0,87,72,53,0.00,40.00,8,4,17,0.00
2013-3-4,52.0,40.3,32.0,37.0,31.1,17.0,94,73,41,0.00,40.00,12,6,20,0.00
2013-3-5,41.0,38.0,37.0,39.0,35.5,16.0,99,92,39,0.00,40.00,13,6,17,0.23
2013-3-6,39.0,36.9,35.0,38.0,36.2,34.0,99,98,94,0.00,40.00,21,10,31,0.40
2013-3-7,51.0,41.4,35.0,41.0,35.5,33.0,96,80,58,0.00,40.00,17,5,25,0.03
2013-3-8,53.0,42.2,36.0,39.0,33.2,30.0,89,72,43,0.00,40.00,7,4,15,0.01
2013-3-9,60.0,46.0,36.0,43.0,35.6,27.0,84,68,51,0.00,40.00,8,4,14,0.00
2013-3-10,56.0,46.4,43.0,43.0,35.5,22.0,96,68,41,0.00,40.00,8,3,12,0.00
2013-3-11,52.0,45.9,42.0,48.0,44.1,41.0,98,94,84,0.00,40.00,7,3,12,0.00
2013-3-12,57.0,47.5,44.0,46.0,42.9,39.0,99,85,60,0.00,40.00,13,7,20,0.00
2013-3-13,68.0,50.9,41.0,50.0,43.5,39.0,94,77,51,0.00,40.00,9,4,14,0.00
2013-3-14,52.0,47.4,45.0,46.0,39.8,20.0,99,78,32,0.00,40.00,25,12,35,0.03
2013-3-15,61.0,48.7,42.0,48.0,45.0,41.0,99,88,52,0.00,40.00,16,8,23,0.03
2013-3-16,43.0,40.2,33.0,42.0,38.6,29.0,99,94,78,0.00,40.00,15,9,32,0.25
2013-3-17,46.0,35.5,30.0,38.0,31.8,28.0,97,87,70,0.00,40.00,15,7,28,0.27
2013-3-18,55.0,38.9,32.0,38.0,31.8,28.0,90,77,52,0.00,40.00,8,4,15,0.01
2013-3-19,45.0,40.0,35.0,45.0,36.9,31.0,99,89,79,0.00,40.00,14,5,25,0.44
2013-3-20,47.0,41.0,32.0,47.0,38.9,28.0,99,92,73,0.00,40.00,33,19,56,1.43
2013-3-21,41.0,34.3,31.0,36.0,31.2,28.0,97,89,72,0.00,40.00,13,7,25,0.16
2013-3-22,41.0,34.1,30.0,33.0,28.6,23.0,97,81,65,0.00,40.00,10,7,26,0.17
2013-3-23,46.0,36.3,31.0,34.0,26.9,23.0,81,69,47,0.00,40.00,8,3,12,0.01
2013-3-24,56.0,41.9,35.0,37.0,29.8,23.0,71,63,46,0.00,40.00,8,3,14,0.00
2013-3-25,58.0,45.2,39.0,41.0,33.1,28.0,77,63,47,0.00,40.00,8,4,14,0.00
2013-3-26,48.0,43.7,40.0,45.0,40.6,33.0,97,89,63,0.00,40.00,5,2,8,0.03
2013-3-27,62.0,46.7,41.0,47.0,43.0,40.0,98,89,59,0.00,40.00,12,4,19,0.17
2013-3-28,58.0,52.9,46.0,52.0,46.3,43.0,90,79,59,0.00,40.00,11,7,15,0.05
2013-3-29,67.0,52.1,45.0,50.0,45.2,38.0,89,78,53,0.00,40.00,7,3,14,0.01
2013-3-30,71.0,58.4,47.0,48.0,42.1,-99.9,84,61,37,0.00,40.00,6,3,13,0.00
2013-3-31,71.0,57.5,48.0,52.0,46.1,39.0,92,67,50,0.00,40.00,22,9,39,0.00
2013-4-1,65.0,50.2,45.0,50.0,45.9,43.0,98,86,57,0.00,40.00,16,10,24,0.00
2013-4-2,66.0,50.3,41.0,49.0,43.1,39.0,99,79,50,0.00,40.00,14,7,21,0.00
2013-4-3,63.0,53.0,44.0,52.0,44.8,37.0,97,74,61,0.00,40.00,6,3,10,0.00
2013-4-4,54.0,50.4,46.0,51.0,46.7,42.0,98,88,69,0.00,40.00,32,11,51,0.40
2013-4-5,48.0,45.8,45.0,47.0,45.0,43.0,99,98,94,0.00,40.00,23,17,40,0.85
2013-4-6,47.0,43.3,40.0,45.0,41.7,39.0,99,94,82,0.00,40.00,26,16,48,0.91
2013-4-7,45.0,40.5,37.0,45.0,38.8,33.0,100,94,84,0.00,40.00,34,17,58,1.11
2013-4-8,48.0,40.8,36.0,43.0,35.4,31.0,94,81,64,0.00,40.00,9,5,23,0.06
2013-4-9,54.0,45.3,39.0,44.0,38.2,31.0,84,77,67,0.00,40.00,6,3,10,0.01
2013-4-10,53.0,47.3,40.0,50.0,41.3,29.0,99,81,46,0.00,40.00,17,10,30,0.16
2013-4-11,54.0,43.7,37.0,40.0,36.0,32.0,92,75,57,0.00,40.00,6,4,17,0.02
2013-4-12,53.0,41.6,35.0,41.0,37.0,34.0,98,85,57,0.00,40.00,19,7,31,0.04
2013-4-13,45.0,37.5,33.0,36.0,33.4,30.0,95,85,69,0.00,40.00,16,9,31,0.12
2013-4-14,47.0,37.3,35.0,44.0,34.9,32.0,97,91,82,0.00,40.00,12,5,20,0.19
2013-4-15,48.0,39.3,35.0,38.0,33.3,30.0,90,80,59,0.00,40.00,9,5,26,0.10
2013-4-16,50.0,42.9,38.0,41.0,35.4,30.0,87,75,59,0.00,40.00,11,6,24,0.14
2013-4-17,54.0,44.7,39.0,42.0,35.9,31.0,79,71,48,0.00,40.00,8,4,15,0.08
2013-4-18,57.0,45.8,39.0,45.0,39.1,30.0,90,78,61,0.00,40.00,13,5,16,0.00
2013-4-19,53.0,46.2,43.0,49.0,43.6,41.0,99,91,73,0.00,40.00,18,11,29,0.11
2013-4-20,53.0,45.2,40.0,43.0,40.7,37.0,97,85,67,0.00,40.00,11,5,20,0.01
2013-4-21,50.0,43.0,38.0,48.0,39.7,35.0,95,88,82,0.00,40.00,10,4,16,0.02
2013-4-22,58.0,47.5,38.0,40.0,33.8,26.0,93,63,34,0.00,40.00,11,6,24,0.01
2013-4-23,66.0,53.4,42.0,35.0,29.9,26.0,55,42,25,0.00,40.00,10,5,19,0.00
2013-4-24,68.0,57.5,48.0,31.0,26.8,22.0,46,32,17,0.00,40.00,10,6,21,0.00
2013-4-25,78.0,63.4,52.0,47.0,36.5,29.0,46,37,30,0.00,40.00,8,4,14,0.00
2013-4-26,78.0,65.4,52.0,48.0,39.2,20.0,54,39,17,0.00,40.00,7,4,14,0.00
2013-4-27,71.0,60.1,48.0,40.0,33.9,24.0,72,39,26,0.00,40.00,17,8,25,0.00
2013-4-28,67.0,51.6,43.0,48.0,42.6,34.0,98,74,42,0.00,40.00,18,6,29,0.00
2013-4-29,52.0,46.3,42.0,46.0,39.7,29.0,100,80,45,0.00,40.00,16,9,29,0.04
2013-4-30,54.0,44.1,36.0,35.0,30.8,28.0,77,61,40,0.00,40.00,11,6,26,0.01
2013-5-1,64.0,48.7,36.0,30.0,28.2,24.0,76,50,22,0.00,40.00,8,5,17,0.00
2013-5-2,76.0,62.2,49.0,39.0,32.0,24.0,46,33,21,0.00,40.00,7,5,16,0.00
2013-5-3,73.0,62.3,54.0,41.0,35.1,24.0,46,36,29,0.00,40.00,9,6,20,0.00
2013-5-4,75.0,66.1,56.0,41.0,34.5,28.0,48,32,21,0.00,40.00,10,7,25,0.00
2013-5-5,80.0,68.3,60.0,37.0,33.2,28.0,32,28,21,0.00,40.00,9,7,23,0.00
2013-5-6,83.0,65.4,55.0,53.0,45.2,35.0,67,49,36,0.00,40.00,10,5,16,0.00
2013-5-7,76.0,53.1,44.0,52.0,45.3,42.0,96,76,43,0.00,40.00,12,4,19,0.00
2013-5-8,74.0,53.6,44.0,54.0,48.3,43.0,99,84,49,0.00,40.00,9,3,14,0.00
2013-5-9,82.0,65.6,51.0,56.0,50.1,42.0,89,61,36,0.00,40.00,9,4,14,0.00
2013-5-10,83.0,66.1,58.0,57.0,39.6,-99.9,69,52,40,0.00,40.00,7,4,14,0.00
2013-5-11,84.0,69.2,57.0,57.0,51.9,-99.9,76,59,40,0.00,40.00,10,5,17,0.00
2013-5-12,66.0,58.3,51.0,55.0,51.9,49.0,99,80,59,0.00,40.00,17,9,28,0.00
2013-5-13,61.0,50.7,43.0,52.0,47.9,39.0,99,91,62,0.00,40.00,23,11,39,0.06
2013-5-14,67.0,50.7,41.0,46.0,40.6,30.0,94,70,42,0.00,40.00,11,4,15,0.02
2013-5-15,56.0,50.2,47.0,51.0,34.3,-99.9,97,70,41,0.00,40.00,11,5,16,0.01
2013-5-16,58.0,46.0,45.0,51.0,29.6,-99.9,100,86,65,0.00,40.00,21,10,29,0.01
2013-5-17,64.0,50.8,44.0,44.0,37.7,-99.9,91,72,44,0.00,40.00,18,10,30,0.00
2013-5-18,54.0,48.3,43.0,51.0,46.0,39.0,100,91,80,0.00,40.00,13,8,20,0.04
2013-5-19,64.0,53.0,45.0,49.0,45.1,41.0,100,76,53,0.00,40.00,10,5,23,0.03
2013-5-20,73.0,56.1,43.0,49.0,43.0,19.0,93,65,29,0.00,40.00,16,6,21,0.00
2013-5-21,48.0,42.4,37.0,44.0,39.8,35.0,99,91,60,0.00,40.00,16,6,35,0.10
2013-5-22,49.0,40.8,36.0,47.0,40.2,35.0,100,97,86,0.00,40.00,13,8,23,0.10
2013-5-23,50.0,43.4,40.0,48.0,42.9,39.0,100,98,91,0.00,40.00,17,11,28,0.23
2013-5-24,55.0,45.7,41.0,51.0,44.2,40.0,100,95,82,0.00,40.00,15,10,24,0.23
2013-5-25,64.0,50.4,41.0,48.0,44.3,40.0,100,82,54,0.00,40.00,14,7,21,0.01
2013-5-26,52.0,48.5,46.0,48.0,46.5,44.0,100,93,82,0.00,40.00,18,12,29,0.16
2013-5-27,56.0,48.8,45.0,55.0,48.0,45.0,100,97,90,0.00,40.00,28,15,46,0.66
2013-5-28,53.0,47.7,45.0,48.0,45.7,43.0,100,93,76,0.00,40.00,19,12,33,0.13
2013-5-29,57.0,48.2,42.0,51.0,46.1,39.0,100,93,73,0.00,40.00,18,11,29,0.56
2013-5-30,58.0,48.8,42.0,51.0,43.8,38.0,99,84,64,0.00,40.00,16,8,28,0.04
2013-5-31,59.0,51.2,44.0,46.0,42.9,38.0,91,74,59,0.00,40.00,6,3,13,0.01
2013-6-1,72.0,58.8,49.0,55.0,47.3,42.0,93,66,49,0.00,40.00,9,4,13,0.00
2013-6-2,67.0,55.6,47.0,51.0,47.4,45.0,94,76,52,0.00,40.00,6,4,13,0.00
2013-6-3,77.0,60.6,49.0,53.0,47.5,42.0,81,64,41,0.00,40.00,12,4,17,0.00
2013-6-4,78.0,65.5,52.0,52.0,44.3,25.0,65,47,28,0.00,40.00,7,5,14,0.00
2013-6-5,83.0,72.0,60.0,57.0,52.4,47.0,65,51,37,0.00,40.00,8,5,15,0.00
2013-6-6,82.0,68.8,58.0,58.0,49.4,30.0,81,52,28,0.00,40.00,8,4,16,0.00
2013-6-7,82.0,66.5,57.0,57.0,39.2,22.0,68,39,21,0.00,40.00,9,4,15,0.00
2013-6-8,79.0,64.5,50.0,51.0,41.7,35.0,63,44,31,0.00,40.00,9,5,14,0.00
2013-6-9,74.0,60.0,48.0,50.0,44.2,38.0,83,57,37,0.00,40.00,10,5,20,0.00
2013-6-10,71.0,55.9,45.0,46.0,41.3,36.0,75,59,40,0.00,40.00,11,6,22,0.00
2013-6-11,62.0,51.1,46.0,46.0,41.6,38.0,84,71,51,0.00,40.00,20,9,31,0.00
2013-6-12,61.0,50.1,44.0,46.0,42.7,40.0,91,76,54,0.00,40.00,17,7,25,0.00
2013-6-13,61.0,50.3,45.0,53.0,46.1,42.0,99,86,67,0.00,40.00,11,6,22,0.17
2013-6-14,66.0,54.4,45.0,50.0,45.0,39.0,84,71,52,0.00,40.00,9,4,17,0.03
2013-6-15,77.0,60.7,52.0,56.0,47.7,39.0,84,64,45,0.00,40.00,16,5,24,0.00
2013-6-16,75.0,58.6,47.0,54.0,48.5,40.0,94,72,42,0.00,40.00,19,7,26,0.00
2013-6-17,72.0,55.1,45.0,52.0,47.6,44.0,98,78,45,0.00,40.00,19,7,27,0.00
2013-6-18,62.0,52.0,45.0,51.0,46.1,43.0,93,81,62,0.00,40.00,18,12,34,0.04
2013-6-19,65.0,51.7,45.0,50.0,45.6,43.0,96,81,50,0.00,40.00,20,10,30,0.02
2013-6-20,62.0,51.2,45.0,50.0,45.9,43.0,96,83,60,0.00,40.00,14,8,26,0.01
2013-6-21,71.0,63.8,58.0,50.0,49.0,48.0,75,60,44,0.00,40.00,6,5,11,0.00
2013-6-22,78.0,68.5,50.0,54.0,50.8,47.0,95,55,36,0.00,40.00,12,6,17,0.00
2013-6-23,65.0,58.8,55.0,63.0,56.7,48.0,99,93,64,0.00,40.00,13,6,19,0.27
2013-6-24,58.0,52.8,49.0,55.0,51.4,48.0,100,95,80,0.00,40.00,20,8,33,0.14
2013-6-25,57.0,53.5,51.0,56.0,52.6,50.0,100,97,89,0.00,40.00,14,10,29,0.27
2013-6-26,67.0,60.8,53.0,59.0,55.1,52.0,99,83,65,0.00,40.00,13,7,20,0.05
2013-6-27,76.0,64.9,58.0,61.0,56.9,53.0,89,76,60,0.00,40.00,20,8,29,0.00
2013-6-28,88.0,72.1,60.0,65.0,57.5,49.0,93,64,34,0.00,40.00,12,5,20,0.00
2013-6-29,85.0,72.9,63.0,62.0,56.4,51.0,68,57,40,0.00,40.00,8,3,13,0.00
2013-6-30,92.0,76.5,66.0,67.0,60.8,57.0,74,60,38,0.00,40.00,13,4,17,0.00
2013-7-1,89.0,81.2,69.0,68.0,63.8,58.0,70,57,47,0.00,40.00,9,4,15,0.00
2013-7-2,83.0,74.5,63.0,59.0,50.6,44.0,88,47,27,0.00,40.00,6,5,13,0.00
2013-7-3,86.0,77.6,61.0,54.0,47.3,41.0,53,35,24,0.00,40.00,8,5,14,0.00
2013-7-4,78.0,65.4,53.0,53.0,49.0,41.0,78,57,41,0.00,40.00,8,5,16,0.00
2013-7-5,74.0,65.4,57.0,52.0,49.7,47.0,76,58,42,0.00,40.00,6,5,16,0.00
2013-7-6,77.0,67.3,58.0,55.0,52.9,47.0,75,61,45,0.00,40.00,7,4,14,0.00
2013-7-7,81.0,71.0,64.0,56.0,50.7,45.0,70,49,42,0.00,40.00,5,4,15,0.00
2013-7-8,82.0,70.9,57.0,56.0,50.4,42.0,77,51,29,0.00,40.00,7,4,14,0.00
2013-7-9,88.0,81.5,67.0,55.0,53.1,50.0,55,38,29,0.00,40.00,8,5,14,0.00
2013-7-10,76.0,73.1,70.0,51.0,50.2,49.0,47,45,41,0.00,40.00,6,5,12,0.00
2013-7-11,72.0,65.7,54.0,48.0,46.3,44.0,69,51,40,0.00,40.00,6,5,13,0.00
2013-7-12,73.0,66.3,56.0,48.0,45.6,43.0,67,48,39,0.00,40.00,7,5,16,0.00
2013-7-13,76.0,67.8,56.0,47.0,39.9,31.0,57,38,19,0.00,40.00,10,6,17,0.00
2013-7-14,84.0,76.8,63.0,46.0,43.0,40.0,43,31,24,0.00,40.00,6,5,16,0.00
2013-7-15,82.0,77.8,67.0,48.0,46.2,42.0,50,33,25,0.00,40.00,8,6,16,0.00
2013-7-16,82.0,75.9,71.0,54.0,53.1,52.0,55,46,36,0.00,40.00,13,11,21,0.00
2013-7-17,76.0,70.2,63.0,52.0,51.6,51.0,65,53,43,0.00,40.00,4,4,12,0.00
2013-7-18,82.0,76.4,60.0,57.0,51.9,47.0,81,45,29,0.00,40.00,5,4,12,0.00
2013-7-19,81.0,79.9,77.0,57.0,55.7,54.0,49,43,39,0.00,40.00,6,6,12,0.00
2013-7-20,77.0,59.1,59.0,56.0,39.2,-99.9,82,62,48,0.00,40.00,5,3,14,0.00
2013-7-21,81.0,76.6,59.0,54.0,52.8,48.0,68,45,39,0.00,40.00,5,4,13,0.00
2013-7-22,88.0,80.3,64.0,55.0,52.7,51.0,68,40,28,0.00,40.00,6,5,15,0.00
2013-7-23,89.0,83.0,68.0,52.0,49.9,46.0,57,33,23,0.00,40.00,6,5,15,0.00
2013-7-24,92.0,87.1,84.0,52.0,49.6,47.0,31,28,23,0.00,40.00,7,5,16,0.00
2013-7-25,87.0,86.2,82.0,54.0,47.3,41.0,38,26,20,0.00,40.00,5,4,13,0.00
2013-7-26,86.0,83.2,81.0,49.0,47.5,46.0,30,29,28,0.00,40.00,5,5,12,0.00
2013-7-27,81.0,71.2,68.0,43.0,39.8,37.0,41,33,21,0.00,40.00,10,6,26,0.00
2013-7-28,75.0,67.1,56.0,48.0,46.9,46.0,69,50,37,0.00,40.00,6,4,15,0.00
2013-7-29,69.0,65.6,63.0,54.0,51.7,50.0,62,61,59,0.00,40.00,9,7,12,0.00
2013-7-30,77.0,70.2,59.0,56.0,54.6,52.0,77,59,44,0.00,40.00,5,3,14,0.00
2013-7-31,65.0,62.8,60.0,57.0,55.0,53.0,79,76,74,0.00,40.00,5,4,10,0.00
2013-8-1,61.0,58.9,56.0,53.0,51.8,51.0,86,77,72,0.00,40.00,14,10,21,0.00
2013-8-2,69.0,63.1,57.0,54.0,52.7,51.0,84,69,58,0.00,40.00,7,4,12,0.00
2013-8-3,81.0,73.5,59.0,57.0,53.4,48.0,85,52,35,0.00,40.00,7,4,12,0.00
2013-8-4,83.0,77.5,72.0,58.0,52.6,51.0,47,42,36,0.00,40.00,6,5,12,0.00
2013-8-5,89.0,84.5,78.0,56.0,55.2,54.0,45,37,31,0.00,40.00,6,4,18,0.00
2013-8-6,93.0,86.9,77.0,47.0,43.3,39.0,33,22,18,0.00,40.00,7,6,14,0.00
2013-8-7,75.0,67.6,63.0,52.0,50.6,49.0,63,55,44,0.00,40.00,9,4,15,0.00
2013-8-8,79.0,69.1,58.0,58.0,55.8,52.0,81,63,46,0.00,40.00,5,4,13,0.00
2013-8-9,75.0,71.6,69.0,58.0,57.1,56.0,64,61,54,0.00,40.00,4,4,11,0.00
2013-8-10,75.0,66.5,62.0,60.0,56.7,55.0,88,72,55,0.00,40.00,6,4,15,0.00
2013-8-11,69.0,65.4,61.0,59.0,56.7,56.0,92,74,63,0.00,40.00,5,4,11,0.02
2013-8-12,71.0,65.8,60.0,56.0,53.8,52.0,75,66,54,0.00,40.00,5,4,12,0.00
2013-8-13,87.0,74.2,57.0,54.0,45.9,-99.9,78,42,26,0.00,40.00,9,5,15,0.00
2013-8-14,80.0,69.9,66.0,57.0,41.0,-99.9,74,49,29,0.00,40.00,19,11,27,0.00
2013-8-15,75.0,67.5,67.0,64.0,57.3,-99.9,86,76,68,0.00,40.00,10,6,14,0.05
2013-8-16,80.0,70.7,65.0,63.0,51.5,-99.9,85,59,47,0.00,40.00,17,11,26,0.00
2013-8-17,75.0,68.0,60.0,58.0,53.8,50.0,70,60,55,0.00,40.00,4,3,19,0.00
2013-8-18,82.0,72.9,60.0,58.0,55.6,52.0,76,56,42,0.00,40.00,9,5,16,0.00
2013-8-19,82.0,67.5,60.0,56.0,38.8,-99.9,81,47,37,0.00,40.00,8,5,17,0.00
2013-8-20,81.0,72.0,58.0,50.0,46.7,41.0,54,41,30,0.00,40.00,6,5,23,0.00
2013-8-21,86.0,77.4,62.0,47.0,45.3,39.0,43,33,24,0.00,40.00,7,5,19,0.00
2013-8-22,76.0,74.1,72.0,54.0,53.3,52.0,52,49,45,0.00,40.00,10,6,14,0.00
2013-8-23,73.0,66.6,55.0,55.0,53.9,51.0,86,65,54,0.00,40.00,14,6,19,0.00
2013-8-24,74.0,66.2,61.0,55.0,52.2,50.0,80,61,43,0.00,40.00,5,4,13,0.03
2013-8-25,68.0,64.3,62.0,57.0,55.5,53.0,82,74,65,0.00,40.00,6,3,12,0.02
2013-8-26,73.0,64.6,55.0,55.0,48.4,45.0,89,58,39,0.00,40.00,24,14,34,0.02
2013-8-27,72.0,68.3,64.0,61.0,61.0,61.0,89,78,68,0.00,40.00,5,4,10,0.07
2013-8-28,75.0,71.2,63.0,60.0,58.0,55.0,86,64,53,0.00,40.00,15,8,23,0.02
2013-8-29,66.0,64.1,62.0,63.0,61.6,60.0,97,91,84,0.00,40.00,17,11,34,0.04
2013-8-30,75.0,69.6,59.0,58.0,55.5,54.0,91,62,50,0.00,40.00,6,4,14,0.04
2013-8-31,89.0,76.1,62.0,55.0,54.2,53.0,73,50,30,0.00,40.00,11,5,16,0.00
2013-9-1,83.0,75.3,60.0,53.0,50.7,48.0,77,44,32,0.00,40.00,15,10,26,0.00
2013-9-2,76.0,72.0,66.0,55.0,53.2,51.0,66,53,45,0.00,40.00,15,12,26,0.02
2013-9-3,78.0,72.6,62.0,51.0,49.4,48.0,61,44,38,0.00,40.00,16,10,24,0.00
2013-9-4,74.0,70.6,69.0,54.0,52.0,49.0,59,53,41,0.00,40.00,10,9,17,0.00
2013-9-5,69.0,67.5,66.0,56.0,54.5,54.0,66,64,62,0.00,40.00,5,4,11,0.00
2013-9-6,64.0,62.0,60.0,56.0,55.0,54.0,84,78,71,0.00,40.00,14,12,23,0.00
2013-9-7,80.0,68.3,58.0,59.0,57.1,56.0,92,69,49,0.00,40.00,7,4,16,0.00
2013-9-8,78.0,72.9,64.0,58.0,56.1,54.0,76,57,44,0.00,40.00,7,5,19,0.00
2013-9-9,86.0,79.8,71.0,57.0,55.0,53.0,61,43,34,0.00,40.00,5,4,16,0.00
2013-9-10,78.0,71.3,67.0,59.0,57.7,56.0,68,62,53,0.00,40.00,4,3,10,0.00
2013-9-12,76.0,67.8,64.0,59.0,57.6,57.0,78,70,55,0.00,40.00,5,2,11,0.00
2013-9-13,64.0,44.0,61.0,59.0,11.8,-99.9,92,61,81,0.00,40.00,8,4,6,0.00
2013-9-14,66.0,66.0,66.0,62.0,62.0,62.0,86,86,86,0.00,40.00,3,3,6,0.00
2013-9-16,65.0,60.6,58.0,57.0,56.8,56.0,97,88,73,0.00,40.00,10,5,16,0.31
2013-9-17,67.0,61.3,57.0,49.0,47.4,46.0,72,61,51,0.00,40.00,10,8,23,0.11
2013-9-19,79.0,68.6,56.0,50.0,47.4,46.0,71,50,33,0.00,40.00,9,6,15,0.00
2013-9-20,68.0,61.6,56.0,53.0,51.0,49.0,82,68,57,0.00,40.00,18,8,36,0.01
2013-9-21,62.0,60.2,59.0,51.0,50.8,50.0,75,71,66,0.00,40.00,15,11,23,0.03
2013-9-23,53.0,53.0,53.0,52.0,52.0,52.0,96,96,95,0.00,40.00,12,10,20,0.00
2013-9-24,55.0,51.1,49.0,52.0,49.1,47.0,96,93,90,0.00,40.00,10,8,22,0.14
2013-9-25,60.0,52.7,46.0,46.0,43.7,41.0,85,72,56,0.00,40.00,8,5,19,0.01
2013-9-26,61.0,56.8,50.0,48.0,46.7,43.0,77,69,62,0.00,40.00,8,5,17,0.00
2013-9-30,50.0,48.8,48.0,47.0,46.4,46.0,97,92,86,0.00,40.00,17,15,32,0.05
2013-10-1,54.0,49.7,44.0,44.0,42.3,41.0,89,77,70,0.00,40.00,8,7,15,0.00
2013-10-2,53.0,51.0,48.0,48.0,46.3,44.0,86,84,83,0.00,40.00,12,10,19,0.04
2013-10-3,59.0,52.0,44.0,48.0,44.6,42.0,94,77,60,0.00,40.00,8,4,13,0.09
2013-10-4,65.0,59.0,46.0,48.0,46.0,40.0,79,63,54,0.00,40.00,6,4,10,0.01
2013-10-5,71.0,62.7,53.0,45.0,40.6,36.0,53,45,38,0.00,40.00,7,5,12,0.00
2013-10-6,73.0,72.3,71.0,44.0,41.7,40.0,36,33,30,0.00,40.00,17,15,27,0.00
2013-10-7,57.0,53.0,48.0,46.0,44.1,40.0,91,72,60,0.00,40.00,12,10,27,0.02
2013-10-9,56.0,51.5,44.0,40.0,38.5,36.0,73,62,55,0.00,40.00,7,6,15,0.00
2013-10-10,60.0,55.8,53.0,49.0,44.3,41.0,86,66,52,0.00,40.00,10,6,14,0.00
2013-10-11,54.0,51.8,51.0,42.0,40.4,38.0,71,65,60,0.00,40.00,8,4,18,0.00
2013-10-13,57.0,53.6,45.0,43.0,41.6,41.0,89,65,58,0.00,40.00,6,4,14,0.00
2013-10-14,61.0,56.5,47.0,42.0,40.1,36.0,66,54,48,0.00,40.00,5,4,13,0.00
2013-10-15,61.0,56.6,49.0,38.0,35.0,32.0,52,44,37,0.00,40.00,7,6,18,0.00
2013-10-16,68.0,61.8,52.0,47.0,43.2,37.0,57,51,47,0.00,40.00,6,4,11,0.00
2013-10-17,65.0,59.8,52.0,41.0,39.6,39.0,62,48,38,0.00,40.00,6,4,11,0.00
2013-10-18,67.0,61.6,53.0,40.0,37.9,35.0,51,42,36,0.00,40.00,5,5,12,0.00
2013-10-19,72.0,69.6,62.0,51.0,49.6,46.0,55,49,47,0.00,40.00,7,5,10,0.00
2013-10-20,69.0,61.0,53.0,50.0,48.0,46.0,77,64,50,0.00,40.00,5,2,10,0.00
2013-10-22,76.0,74.1,71.0,48.0,47.0,45.0,41,38,36,0.00,40.00,6,5,12,0.00
2013-10-27,52.0,50.0,48.0,44.0,41.7,39.0,81,74,62,0.00,40.00,13,10,35,0.02
2013-10-28,54.0,49.9,45.0,33.0,31.6,30.0,60,50,40,0.00,40.00,7,5,19,0.02
2013-10-29,55.0,51.3,45.0,29.0,25.8,24.0,43,37,33,0.00,40.00,4,4,11,0.00
2013-10-30,58.0,57.5,57.0,39.0,38.5,38.0,49,49,49,0.00,40.00,6,6,12,0.00
2013-11-1,59.0,50.8,45.0,49.0,46.8,44.0,97,87,70,0.00,40.00,4,3,10,0.00
2013-11-2,49.0,45.9,43.0,41.0,38.7,37.0,84,76,65,0.00,40.00,14,11,35,0.50
2013-11-3,44.0,42.3,40.0,40.0,38.2,35.0,89,85,81,0.00,40.00,9,7,22,0.37
2013-11-7,48.0,46.5,45.0,45.0,42.8,40.0,89,86,84,0.00,40.00,19,16,35,0.00
2013-11-10,59.0,56.8,53.0,50.0,49.0,48.0,85,75,67,0.00,40.00,5,4,9,0.00
2013-11-11,57.0,52.6,49.0,47.0,44.9,41.0,82,75,69,0.00,40.00,5,3,11,0.00
2013-11-12,55.0,54.0,52.0,52.0,51.5,51.0,97,92,87,0.00,40.00,6,5,10,0.47
2013-11-13,53.0,51.3,49.0,49.0,47.3,46.0,90,86,80,0.00,40.00,2,2,7,0.01
2013-11-16,46.0,43.2,41.0,39.0,37.8,37.0,90,82,75,0.00,40.00,16,11,26,0.00
2013-11-20,39.0,34.9,32.0,28.0,24.0,19.0,71,65,59,0.00,40.00,11,9,30,0.00
2013-11-21,42.0,36.7,30.0,12.0,9.2,6.0,35,32,28,0.00,40.00,11,7,23,0.00
2013-11-22,47.0,44.1,38.0,17.0,13.1,9.0,30,28,26,0.00,40.00,5,5,12,0.00
2013-11-23,53.0,47.0,38.0,23.0,19.0,15.0,38,33,28,0.00,40.00,5,4,14,0.00
2013-11-24,53.0,49.4,41.0,31.0,26.8,19.0,42,41,38,0.00,40.00,5,4,9,0.00
2013-11-25,51.0,51.0,51.0,35.0,34.3,33.0,55,53,50,0.00,40.00,4,3,10,0.00
2013-11-26,47.0,47.0,47.0,37.0,37.0,37.0,68,68,68,0.00,40.00,2,2,6,0.00
2013-11-27,54.0,50.2,47.0,33.0,32.0,30.0,52,50,43,0.00,40.00,4,2,10,0.00
2013-11-28,56.0,55.1,52.0,36.0,34.7,34.0,54,47,44,0.00,40.00,5,4,7,0.00
2013-11-29,48.0,47.6,47.0,37.0,36.6,36.0,66,65,65,0.00,40.00,2,2,5,0.00
2013-12-2,38.0,38.0,38.0,31.0,31.0,31.0,76,76,76,0.00,40.00,9,9,21,0.00
2013-12-4,32.0,29.2,26.0,16.0,13.9,11.0,60,52,48,0.00,40.00,6,4,13,0.00
2013-12-5,31.0,26.8,20.0,16.0,12.4,5.0,59,54,47,0.00,40.00,6,4,11,0.00
2013-12-7,24.0,19.3,16.0,7.0,4.2,2.0,58,51,47,0.00,40.00,8,5,19,0.00
2013-12-8,27.0,24.8,20.0,13.0,9.8,4.0,59,52,49,0.00,40.00,2,2,7,0.00
2013-12-10,37.0,37.0,37.0,31.0,31.0,31.0,80,80,80,0.00,40.00,5,5,7,0.00
2013-12-14,49.0,45.4,44.0,43.0,42.4,42.0,91,89,81,0.00,40.00,3,2,7,0.00
2013-12-15,54.0,48.0,45.0,48.0,46.0,44.0,97,93,80,0.00,40.00,5,3,7,0.04
2013-12-16,45.0,43.3,41.0,41.0,40.3,40.0,96,90,83,0.00,40.00,6,4,10,0.00
2013-12-19,37.0,34.4,31.0,26.0,25.6,25.0,80,70,62,0.00,40.00,5,4,16,0.00
2013-12-21,53.0,49.3,45.0,45.0,43.3,41.0,86,80,73,0.00,40.00,12,10,17,0.00
2013-12-22,52.0,50.5,49.0,45.0,44.5,44.0,83,80,76,0.00,40.00,10,10,18,0.00
2013-12-23,48.0,48.0,48.0,46.0,46.0,46.0,94,94,94,0.00,40.00,14,14,23,0.00
2013-12-24,45.0,41.1,36.0,34.0,31.9,29.0,77,70,61,0.00,40.00,4,4,9,0.01
2013-12-29,45.0,42.1,40.0,38.0,36.9,36.0,87,82,75,0.00,40.00,5,4,7,0.00
2013-12-30,47.0,45.5,44.0,37.0,31.8,28.0,72,59,49,0.00,40.00,10,4,15,0.00
2013-12-31,53.0,46.2,43.0,41.0,32.4,27.0,80,59,46,0.00,40.00,10,3,19,0.00
2014-1-1,47.0,42.3,39.0,42.0,37.0,34.0,92,82,67,0.00,40.00,3,2,7,0.00
2014-1-2,54.0,45.3,41.0,42.0,34.9,31.0,92,67,47,0.00,40.00,15,7,25,0.00